Weather in Irkir

Russia / Sakhalin District     51°14′49″N   142°40′26″E
temp.,
°C
wind,
m/s
gust,
m/s
humid.,
%
clouds,
%
prec.,
mm/h
press.,
hPa
HPBL,
m
22 january, fri
fri2223:00−18wsw2597100 0.5 1013251
02:00−20nw1299100 0.3 101455
05:00−21w1198100 0.4 101421
08:00−22wsw1299100 0.1 101456
11:00−21wsw1396100 0.2 1015235
14:00−18wnw3686100 0.1 10151000
17:00−19nw3690100 0.3 1015871
20:00−21wnw2697100 0.1 1017467
23 january, sat
sat2323:00−22wnw2694100 0.2 1018339
02:00−26wnw128686 0.0 102020
05:00−26ssw229577 0.0 102127
08:00−26ssw22100100 0.0 102225
11:00−24ssw23100100 0.1 1023149
14:00−20sw3784100 0.0 1022646
17:00−21wsw388464 0.0 1023511
20:00−26ssw22910 0.0 102421
24 january, sun
sun2423:00−27s23900 0.0 102437
02:00−27s23890 0.0 102538
05:00−26ssw238519 0.0 102434
08:00−22ssw2585100 0.0 1024150
11:00−19ssw2595100 0.0 1024224
14:00−16sw2389100 0.1 1024507
17:00−16w2391100 0.1 1025333
20:00−23sw119953 0.0 102820
25 january, mon
mon2523:00−24ssw119851 0.0 102820
02:00−25sw129663 0.0 102920
05:00−25ssw119275 0.0 103020
08:00−27wsw228833 0.0 103220
11:00−23wnw287617 0.0 1033531
14:00−20wnw37700 0.0 1033945
17:00−22nw24790 0.0 1034343
20:00−28w11820 0.0 103619
26 january, tue
tue2623:00−30s11810 0.0 103619
02:00−30s118515 0.0 103619
05:00−30se118541 0.0 103519
08:00−27e118167 0.0 103419
11:00−24e117883 0.0 1032113
14:00−19ese1274100 0.0 1029304
17:00−18e1295100 0.3 1026227
20:00−20e1199100 0.5 102470